TimeAKST,TemperatureF,Dew PointF,Humidity,Sea Level PressureIn,VisibilityMPH,Wind Direction,Wind SpeedMPH,Gust SpeedMPH,PrecipitationIn,Events,Conditions,WindDirDegrees,DateUTC
12:01 AM,10.0,10.0,100,30.27,3.0,West,33.4,-,0.00,Snow,Light Snow,270,2012-11-16 09:01:00
12:57 AM,10.4,10.4,100,30.30,2.5,West,33.4,36.8,0.00,Snow,Light Snow,270,2012-11-16 09:57:00
1:01 AM,10.0,10.0,100,30.29,2.0,West,29.9,36.8,0.00,Snow,Light Snow,270,2012-11-16 10:01:00
1:09 AM,10.4,10.4,100,30.29,1.5,West,29.9,35.7,0.00,Snow,Light Snow,270,2012-11-16 10:09:00
2:01 AM,10.4,10.4,100,30.32,2.0,West,29.9,-,0.00,Snow,Light Snow,280,2012-11-16 11:01:00
2:09 AM,10.4,10.4,100,30.33,1.8,West,31.1,38.0,0.00,Snow,Light Snow,280,2012-11-16 11:09:00
3:01 AM,10.0,10.0,100,30.32,1.2,North,18.4,-,0.00,Snow,Light Snow,350,2012-11-16 12:01:00
3:26 AM,8.6,8.6,100,30.34,2.5,NW,10.4,-,0.00,Snow,Light Snow,320,2012-11-16 12:26:00
3:47 AM,8.6,8.6,100,30.34,4.0,North,-9999.0,-,0.00,Snow,Light Snow,0,2012-11-16 12:47:00
4:01 AM,8.1,7.0,95,30.35,6.0,North,16.1,-,0.00,Snow,Light Snow,10,2012-11-16 13:01:00
5:01 AM,5.0,5.0,100,30.38,5.0,North,16.1,-,0.00,Snow,Light Snow,10,2012-11-16 14:01:00
6:01 AM,3.0,1.9,95,30.41,4.0,North,13.8,-,0.00,Snow,Light Snow,360,2012-11-16 15:01:00
7:01 AM,1.9,1.0,96,30.43,8.0,North,12.7,-,0.00,,Unknown,10,2012-11-16 16:01:00
8:01 AM,1.0,-0.0,95,30.46,10.0,NNE,11.5,-,N/A,,Unknown,20,2012-11-16 17:01:00
9:01 AM,-0.0,-0.9,96,30.48,10.0,North,8.1,-,N/A,,Unknown,10,2012-11-16 18:01:00
10:01 AM,-0.0,-0.0,100,30.50,10.0,North,4.6,-,N/A,,Unknown,10,2012-11-16 19:01:00
11:01 AM,1.0,-0.0,95,30.51,10.0,NE,3.5,-,N/A,,Unknown,50,2012-11-16 20:01:00
12:01 PM,-2.9,-4.0,95,30.52,8.0,SW,5.8,-,N/A,,Unknown,220,2012-11-16 21:01:00
1:01 PM,-4.0,-6.0,91,30.52,10.0,SSW,3.5,-,N/A,,Unknown,210,2012-11-16 22:01:00
2:01 PM,-8.0,-9.0,95,30.52,9.0,SSW,9.2,-,N/A,,Unknown,210,2012-11-16 23:01:00
3:01 PM,-6.0,-7.1,95,30.51,10.0,SSW,3.5,-,N/A,,Unknown,200,2012-11-17 00:01:00
4:01 PM,-9.0,-9.9,96,30.52,6.0,SSW,6.9,-,N/A,,Mist,200,2012-11-17 01:01:00
5:01 PM,-5.1,-5.1,100,30.51,10.0,South,8.1,-,N/A,,Unknown,190,2012-11-17 02:01:00
6:01 PM,-0.0,-0.9,96,30.51,10.0,SSW,6.9,-,N/A,,Unknown,200,2012-11-17 03:01:00
7:01 PM,1.0,-0.0,95,30.51,10.0,WSW,5.8,-,N/A,,Unknown,240,2012-11-17 04:01:00
8:01 PM,-0.9,-2.0,95,30.49,10.0,SW,8.1,-,N/A,,Unknown,230,2012-11-17 05:01:00
9:01 PM,-0.9,-2.0,95,30.48,10.0,SW,9.2,-,N/A,,Unknown,230,2012-11-17 06:01:00
10:01 PM,-4.0,-5.1,95,30.47,10.0,WSW,10.4,-,N/A,,Unknown,240,2012-11-17 07:01:00
11:01 PM,-4.0,-6.0,91,30.45,9.0,West,8.1,-,N/A,,Unknown,260,2012-11-17 08:01:00